Weather in Sadovoye

Russia / Astrakhan Oblast     48°28′57″N   45°33′33″E
temp.,
°C
wind,
m/s
gust,
m/s
humid.,
%
clouds,
%
prec.,
mm/h
press.,
hPa
HPBL,
m
1 march, mon
mon101:00−2n3485100 0.0 1019387
04:00−3nne228699 0.1 1020258
07:00−3nne228499 0.0 1021174
10:00−2nne337294 0.0 1023407
13:00−1n336033 0.0 1024648
16:000n345516 0.0 1024779
19:00−2n23650 0.0 102677
22:00−2nne11660 0.0 102730
2 march, tue
tue201:00−3w11660 0.0 102725
04:00−3wsw24700 0.0 1026113
07:00−3wsw47760 0.0 1025212
10:00−1w697230 0.0 1024766
13:00+3w8115899 0.0 10211061
16:00+3wsw91366100 0.0 10181264
19:00+2wsw71473100 0.0 1016821
22:00+1wsw71483100 0.2 1014781
3 march, wed
wed301:00+1wsw81597100 1.0 1012713
04:00+1wsw71397100 1.4 1010654
07:00+1w5998100 1.3 1009408
10:000nnw5897100 2.6 1010478
13:00+3nw7972100 0.1 10111079
16:00+2nw8116699 0.2 10121422
19:000nw61178100 0.3 1015720
22:00−2nw5127365 0.3 1018868
4 march, thu
thu401:00−3nw511730 0.0 1019858
04:00−2w5107815 0.0 1021573
07:00−2w510780 0.0 1021403
10:00+1w710700 0.0 1022803
13:00+4w7105928 0.0 10211228
16:00+5wsw8115914 0.0 10191176
19:00+2sw613710 0.0 1018331
22:00+1sw614790 0.0 1018370
5 march, fri
fri501:00+1sw714810 0.0 1017399
04:00+1sw714820 0.0 1017452
07:00+1sw7148342 0.0 1016464
10:00+3sw8137262 0.0 1016598
13:00+7wsw811600 0.0 1016987
16:00+8wsw812570 0.0 10151234
19:00+5wsw48706 0.0 1016127
22:00+3sw597816 0.0 1017173